Temp
-8 -8 -8 -7 -7 -7 -8 -7 -7 -6 -7 -6 -6 -6 -5 -5 -4 -4 -4 -4 -3 -2 -2 -1 -0 -0 0 0 0 -0 0 1 1 1 1 1 1 1 0 1 0 0 -0 1
-9 -9 -7 -8 -8 -8 -8 -8 -7 -7 -7 -7 -7 -6 -6 -5 -5 -5 -4 -4 -4 -3 -2 -2 -2 -2 -2 -2 -1 -0 -0 0 0 0 1 1 1 1 1 1 2 1 1 1
-9 -9 -8 -8 -8 -9 -9 -9 -8 -7 -8 -7 -7 -7 -6 -6 -6 -6 -5 -4 -4 -4 -3 -2 -3 -3 -3 -2 -2 -2 -2 -1 -1 0 1 1 1 1 1 1 1 1 1 1
-9 -9 -9 -9 -9 -9 -9 -9 -8 -9 -9 -8 -7 -5 -7 -6 -6 -6 -5 -5 -4 -4 -4 -4 -3 -3 -3 -3 -2 -1 -1 -2 -1 -0 -0 0 0 0 1 1 1 1 1 1
-10 -10 -10 -10 -10 -9 -9 -9 -9 -8 -9 -8 -9 -8 -6 -7 -7 -7 -6 -5 -5 -5 -5 -5 -4 -4 -4 -3 -3 -2 -2 -1 -1 -1 -1 -1 -0 -0 0 0 1 1 1 1
-11 -11 -11 -11 -10 -10 -10 -10 -10 -9 -9 -9 -8 -8 -6 -7 -7 -7 -7 -7 -6 -6 -5 -5 -5 -5 -5 -4 -4 -3 -3 -2 -2 -2 -2 -2 -1 -1 -1 -1 -0 -0 -0 0
-12 -13 -12 -12 -11 -11 -11 -10 -9 -9 -9 -8 -8 -9 -7 -8 -8 -8 -8 -7 -7 -7 -7 -6 -6 -6 -5 -5 -5 -5 -4 -4 -3 -3 -2 -2 -2 -2 -2 -2 -1 -1 -1 -1
-13 -12 -13 -13 -12 -12 -12 -11 -8 -8 -7 -6 -10 -8 -10 -8 -9 -9 -9 -9 -8 -8 -8 -8 -7 -7 -6 -6 -6 -6 -5 -5 -4 -4 -4 -3 -3 -3 -3 -3 -2 -2 -2 -2
-14 -14 -14 -13 -13 -13 -12 -12 -11 -11 -10 -8 -10 -12 -12 -11 -11 -10 -11 -11 -10 -9 -9 -9 -8 -8 -7 -7 -6 -6 -6 -6 -5 -5 -5 -5 -4 -4 -4 -4 -4 -3 -3 -3
-15 -14 -14 -14 -14 -13 -13 -13 -11 -11 -9 -9 -12 -14 -11 -13 -13 -13 -12 -12 -11 -11 -10 -10 -9 -8 -8 -8 -7 -7 -7 -7 -6 -6 -6 -5 -5 -5 -5 -5 -4 -4 -4 -4
-15 -15 -15 -14 -14 -14 -13 -13 -13 -12 -12 -9 -8 -11 -14 -15 -14 -13 -13 -12 -12 -11 -11 -11 -10 -10 -9 -9 -8 -8 -8 -8 -7 -7 -7 -7 -6 -6 -6 -6 -6 -5 -5 -5
-16 -16 -15 -15 -15 -15 -15 -15 -14 -13 -12 -14 -13 -13 -14 -14 -15 -14 -14 -13 -13 -13 -12 -11 -11 -11 -10 -10 -9 -9 -9 -9 -8 -8 -8 -8 -8 -8 -7 -7 -7 -7 -7 -7
-16 -16 -14 -15 -15 -15 -16 -15 -15 -14 -14 -14 -12 -14 -14 -15 -15 -15 -15 -14 -14 -13 -13 -13 -12 -12 -12 -12 -11 -11 -11 -10 -9 -9 -9 -9 -9 -9 -9 -8 -8 -8 -8 -8
-16 -16 -16 -14 -16 -16 -16 -16 -16 -15 -14 -14 -14 -14 -14 -15 -15 -15 -15 -15 -15 -14 -14 -14 -14 -13 -13 -13 -13 -12 -12 -11 -11 -11 -10 -10 -10 -10 -10 -10 -10 -10 -9 -9
-16 -16 -16 -16 -16 -16 -17 -16 -16 -16 -16 -15 -15 -15 -15 -15 -15 -16 -16 -16 -15 -15 -15 -14 -14 -14 -14 -14 -14 -14 -13 -13 -13 -12 -12 -11 -11 -11 -11 -11 -11 -11 -11 -10
-16 -17 -16 -17 -16 -17 -17 -17 -17 -17 -17 -16 -16 -16 -15 -15 -16 -16 -16 -16 -16 -15 -15 -15 -15 -15 -15 -15 -15 -15 -14 -14 -13 -13 -13 -12 -12 -12 -12 -12 -12 -12 -12 -11
-16 -16 -16 -16 -17 -17 -16 -17 -18 -18 -17 -17 -17 -17 -16 -16 -17 -17 -17 -16 -16 -16 -16 -16 -17 -17 -17 -16 -16 -15 -14 -14 -14 -13 -13 -13 -13 -12 -12 -12 -12 -12 -12 -12
-16 -16 -16 -16 -16 -15 -18 -18 -18 -18 -18 -18 -17 -17 -17 -17 -17 -17 -17 -17 -17 -17 -18 -18 -17 -17 -16 -16 -16 -15 -15 -14 -14 -14 -14 -13 -13 -13 -13 -13 -12 -12 -12 -12
-17 -16 -16 -16 -16 -18 -18 -18 -18 -18 -19 -18 -18 -18 -18 -18 -18 -18 -18 -18 -18 -18 -18 -18 -17 -17 -17 -17 -16 -16 -16 -15 -15 -14 -14 -14 -14 -14 -13 -13 -13 -13 -13 -12
-17 -16 -16 -16 -16 -16 -19 -18 -18 -18 -18 -18 -18 -18 -18 -18 -18 -18 -19 -19 -18 -18 -18 -18 -18 -18 -18 -17 -17 -17 -17 -16 -16 -15 -15 -15 -14 -14 -14 -14 -14 -13 -13 -13
-17 -17 -17 -17 -17 -18 -18 -18 -18 -18 -20 -19 -19 -19 -19 -18 -18 -18 -18 -18 -19 -19 -19 -19 -18 -18 -18 -18 -18 -18 -17 -17 -17 -17 -16 -16 -15 -15 -15 -15 -14 -14 -14 -14
-18 -18 -18 -18 -18 -18 -18 -18 -18 -20 -20 -20 -19 -19 -19 -19 -19 -19 -18 -18 -18 -18 -18 -18 -18 -18 -18 -18 -18 -18 -18 -18 -18 -17 -17 -17 -16 -16 -16 -15 -15 -15 -15 -14
-18 -18 -18 -19 -19 -19 -19 -19 -19 -19 -19 -19 -19 -19 -19 -19 -19 -19 -19 -19 -19 -19 -19 -19 -19 -19 -19 -19 -19 -19 -19 -19 -18 -18 -18 -17 -17 -17 -16 -16 -16 -16 -15 -15
-19 -19 -19 -19 -19 -20 -20 -20 -20 -20 -19 -19 -19 -19 -20 -19 -19 -19 -19 -19 -19 -19 -19 -19 -19 -19 -19 -19 -19 -19 -19 -19 -19 -19 -18 -18 -18 -17 -17 -17 -17 -16 -16 -16
-20 -20 -20 -20 -20 -20 -20 -21 -21 -21 -21 -21 -20 -21 -21 -20 -20 -20 -20 -20 -20 -20 -20 -20 -20 -19 -20 -20 -20 -19 -19 -19 -19 -19 -19 -18 -18 -18 -18 -18 -17 -17 -17 -16
-21 -22 -22 -23 -23 -23 -22 -22 -21 -21 -21 -21 -21 -21 -22 -23 -22 -22 -21 -21 -21 -21 -21 -20 -20 -20 -20 -20 -20 -20 -20 -19 -19 -19 -19 -19 -19 -19 -19 -18 -18 -18 -17 -17
Height
3007 3007 3006 3010 3013 3015 3016 3017 3017 3019 3019 3021 3021 3023 3022 3024 3026 3028 3031 3034 3038 3040 3043 3045 3048 3051 3055 3059 3063 3068 3071 3075 3079 3082 3086 3090 3092 3095 3097 3098 3100 3101 3102 3105
3006 3002 3005 3006 3008 3009 3011 3012 3013 3015 3014 3017 3015 3015 3016 3018 3020 3022 3025 3027 3031 3035 3037 3039 3042 3045 3049 3053 3057 3061 3065 3068 3072 3076 3079 3083 3086 3089 3092 3093 3095 3097 3099 3099
3002 3002 3000 3001 3002 3004 3005 3007 3010 3012 3010 3011 3012 3010 3008 3010 3013 3016 3019 3022 3025 3028 3032 3035 3037 3040 3044 3047 3051 3054 3058 3061 3066 3069 3073 3076 3079 3083 3085 3087 3090 3092 3093 3094
2997 2996 2996 2998 2999 3001 3001 3004 3005 3007 3009 3008 3009 3004 3002 3004 3007 3009 3012 3016 3019 3022 3026 3029 3033 3036 3039 3042 3046 3049 3053 3056 3062 3063 3067 3070 3073 3076 3079 3080 3083 3086 3088 3088
2994 2992 2992 2993 2994 2996 2998 2998 3000 3001 3003 3005 3003 3005 2997 2997 2998 3002 3006 3010 3014 3018 3021 3024 3028 3031 3035 3038 3041 3044 3047 3050 3053 3057 3060 3063 3067 3070 3072 3074 3076 3079 3080 3081
2988 2988 2989 2989 2990 2991 2993 2995 2997 2998 2999 2996 2994 2998 2991 2991 2992 2996 3001 3005 3008 3012 3016 3019 3023 3026 3029 3033 3036 3039 3042 3045 3048 3052 3054 3056 3059 3062 3064 3067 3069 3072 3074 3075
2985 2984 2984 2985 2987 2988 2990 2993 2992 2991 2989 2984 2986 2993 2987 2986 2987 2990 2995 2999 3003 3007 3010 3014 3017 3020 3024 3027 3030 3033 3036 3039 3042 3045 3047 3050 3052 3054 3057 3060 3063 3064 3067 3069
2984 2984 2984 2984 2985 2986 2987 2989 2985 2977 2975 2976 2983 2982 2981 2982 2984 2985 2989 2993 2998 3002 3006 3009 3012 3015 3018 3021 3024 3027 3030 3033 3035 3038 3040 3043 3045 3047 3050 3053 3056 3059 3061 3063
2985 2985 2983 2983 2983 2985 2984 2984 2984 2982 2979 2976 2978 2977 2977 2977 2980 2982 2985 2989 2993 2997 3000 3004 3008 3010 3013 3016 3019 3021 3024 3027 3029 3032 3034 3036 3039 3042 3045 3047 3050 3052 3055 3057
2984 2984 2983 2982 2982 2982 2982 2983 2983 2980 2975 2969 2975 2976 2975 2974 2977 2980 2983 2986 2989 2992 2995 2999 3002 3005 3008 3011 3013 3016 3018 3021 3023 3026 3028 3030 3032 3035 3038 3040 3043 3045 3048 3050
2984 2984 2985 2983 2982 2981 2981 2980 2980 2979 2977 2970 2966 2973 2972 2974 2977 2980 2981 2984 2986 2989 2992 2994 2997 3000 3003 3005 3008 3010 3012 3014 3017 3019 3022 3024 3026 3029 3031 3034 3036 3039 3042 3043
2985 2984 2984 2984 2983 2982 2981 2981 2980 2978 2977 2976 2974 2976 2972 2974 2977 2980 2981 2983 2984 2986 2988 2990 2993 2995 2997 2999 3001 3003 3006 3008 3011 3013 3015 3018 3020 3022 3025 3027 3030 3033 3035 3037
2986 2985 2984 2983 2986 2984 2983 2982 2981 2979 2978 2977 2975 2977 2974 2975 2978 2980 2982 2983 2984 2985 2987 2988 2990 2991 2992 2994 2995 2997 3000 3002 3005 3007 3009 3011 3013 3016 3019 3021 3024 3026 3029 3031
2985 2985 2986 2986 2986 2986 2985 2983 2982 2980 2979 2978 2978 2978 2977 2977 2978 2980 2981 2983 2984 2985 2986 2987 2988 2989 2990 2991 2992 2994 2996 2998 3000 3002 3004 3006 3008 3010 3012 3015 3018 3020 3022 3024
2986 2986 2986 2986 2986 2985 2985 2984 2983 2982 2981 2981 2980 2979 2978 2978 2979 2980 2981 2982 2983 2984 2985 2986 2986 2987 2987 2988 2990 2991 2993 2995 2997 2998 3000 3001 3003 3005 3007 3009 3011 3013 3016 3018
2987 2987 2987 2987 2987 2987 2987 2986 2985 2983 2982 2981 2980 2979 2977 2977 2978 2979 2980 2981 2982 2983 2983 2983 2984 2985 2986 2987 2988 2989 2991 2992 2994 2995 2996 2998 2999 3001 3002 3004 3006 3007 3009 3011
2987 2987 2987 2988 2987 2987 2988 2988 2987 2985 2984 2983 2981 2980 2977 2977 2978 2980 2980 2981 2981 2981 2981 2982 2982 2983 2984 2985 2985 2986 2987 2988 2989 2990 2992 2993 2995 2996 2997 2998 3000 3001 3003 3004
2988 2987 2987 2987 2987 2988 2992 2990 2988 2987 2986 2984 2982 2980 2979 2979 2980 2980 2981 2980 2980 2980 2981 2981 2982 2982 2982 2982 2982 2982 2982 2982 2982 2983 2985 2986 2988 2989 2990 2992 2993 2994 2995 2997
2988 2987 2987 2988 2988 2992 2991 2990 2990 2988 2988 2985 2983 2982 2982 2981 2981 2981 2981 2981 2981 2980 2979 2979 2978 2978 2977 2977 2977 2977 2977 2977 2976 2976 2977 2977 2979 2980 2981 2983 2985 2986 2987 2989
2990 2988 2988 2988 2988 2989 2992 2990 2989 2988 2989 2986 2985 2983 2982 2981 2980 2982 2979 2978 2978 2977 2976 2975 2974 2973 2972 2972 2971 2971 2970 2970 2970 2970 2970 2969 2970 2971 2972 2973 2975 2976 2978 2980
2992 2991 2990 2990 2990 2991 2990 2989 2988 2988 2992 2984 2983 2982 2980 2979 2977 2975 2974 2972 2971 2970 2969 2968 2967 2966 2966 2965 2965 2964 2963 2963 2963 2962 2962 2962 2962 2963 2963 2964 2965 2967 2968 2970
2994 2993 2992 2991 2991 2992 2989 2988 2988 2987 2983 2981 2979 2976 2974 2973 2971 2968 2966 2964 2962 2961 2959 2959 2958 2958 2957 2957 2956 2955 2955 2954 2954 2954 2953 2953 2953 2954 2955 2956 2957 2958 2959 2961
2997 2996 2994 2994 2992 2988 2986 2984 2982 2979 2976 2973 2970 2967 2964 2961 2959 2957 2954 2953 2952 2950 2949 2948 2948 2947 2947 2946 2946 2946 2945 2944 2944 2944 2944 2944 2944 2945 2946 2947 2948 2950 2951 2952
2995 2994 2993 2992 2989 2987 2984 2981 2977 2973 2969 2965 2960 2956 2953 2948 2946 2943 2940 2938 2936 2936 2935 2935 2934 2935 2935 2934 2934 2935 2935 2934 2934 2934 2934 2934 2935 2936 2937 2938 2939 2941 2942 2944
2995 2993 2989 2988 2985 2982 2978 2975 2969 2964 2958 2952 2948 2943 2938 2933 2930 2926 2924 2924 2922 2920 2920 2920 2920 2921 2922 2921 2922 2923 2923 2923 2924 2924 2924 2924 2925 2926 2928 2929 2931 2932 2933 2935
2992 2989 2987 2983 2980 2975 2971 2966 2959 2950 2943 2937 2929 2924 2921 2916 2912 2910 2908 2908 2906 2906 2906 2906 2907 2907 2908 2908 2910 2911 2911 2912 2914 2915 2915 2915 2917 2918 2919 2921 2922 2924 2925 2926
Wind_Speed
17 19 20 22 23 24 20 18 18 15 18 20 19 22 31 32 28 31 34 36 37 32 28 33 37 38 41 42 44 44 42 41 42 39 38 35 35 34 35 34 30 26 29 23
16 20 17 18 19 20 20 20 22 17 15 20 20 26 31 33 34 30 31 34 37 37 33 30 33 34 35 37 38 40 41 41 38 36 35 34 33 32 33 30 29 31 31 31
15 10 9 13 21 21 22 23 21 21 16 23 19 22 29 33 35 35 32 32 34 36 37 34 31 32 31 32 34 33 33 32 35 31 31 28 26 27 27 26 26 30 32 31
14 19 19 20 19 13 18 19 22 19 15 20 20 11 22 30 33 35 36 35 35 35 35 35 32 30 30 30 31 30 29 31 35 30 30 28 27 27 27 27 27 28 29 29
9 11 10 12 14 18 17 17 15 17 22 19 16 13 19 22 33 35 36 37 36 35 34 33 32 31 30 29 29 30 30 30 28 29 30 29 28 28 27 28 28 28 28 29
16 17 14 16 13 13 13 13 12 13 18 12 29 24 21 24 29 36 35 35 36 36 35 34 33 32 30 29 29 29 30 30 31 30 30 29 29 29 27 28 29 29 28 29
7 10 12 12 12 13 13 11 6 9 9 7 19 18 16 12 23 28 33 34 33 33 33 32 31 31 31 30 29 29 29 29 29 29 29 29 29 28 28 28 29 29 28 27
1 2 3 4 10 9 14 17 10 11 9 9 12 13 10 27 16 19 31 31 31 30 29 29 29 29 29 29 28 26 26 26 26 27 27 27 27 27 28 29 28 28 28 28
2 1 2 3 3 9 5 13 14 6 4 5 6 6 11 17 20 18 24 28 28 28 27 27 27 27 27 27 26 25 24 24 24 25 25 25 25 26 27 28 28 28 28 28
2 2 2 4 3 4 10 6 6 8 4 5 2 3 2 16 18 19 22 25 25 26 25 25 25 25 25 25 25 25 25 25 26 26 27 27 27 27 26 27 28 27 27 27
4 2 3 3 4 4 1 3 5 4 3 4 2 3 8 13 16 16 18 20 22 24 24 26 27 26 24 25 25 25 26 26 27 28 28 29 29 29 27 27 27 28 28 27
6 2 2 4 2 4 4 4 3 4 3 2 2 1 4 14 14 13 13 13 15 17 20 23 25 26 27 28 28 27 25 25 25 25 25 26 27 28 27 27 27 27 27 27
5 4 2 2 4 8 6 8 5 3 3 2 4 2 3 13 13 12 11 12 13 13 13 14 15 16 17 18 19 20 21 21 22 23 23 24 25 25 26 27 27 26 27 27
2 3 4 3 1 3 4 7 8 3 3 2 3 3 3 10 12 12 12 12 13 13 13 13 13 12 11 11 11 12 14 16 18 19 21 22 23 24 24 25 26 26 27 27
2 2 4 5 7 8 8 8 7 7 5 3 5 5 4 8 11 13 12 12 13 13 14 15 14 13 11 10 9 9 9 10 12 13 15 18 20 21 23 24 25 25 26 26
4 1 2 3 3 6 9 9 11 8 10 6 7 4 7 11 14 13 13 13 13 13 12 11 10 9 9 9 9 10 11 12 12 13 13 14 16 18 20 22 24 26 26 27
6 3 1 2 3 3 5 11 12 10 9 10 9 9 5 5 10 10 9 10 9 8 7 7 7 8 9 11 13 15 16 17 17 18 18 18 19 20 20 21 23 25 26 28
8 4 3 1 2 2 4 7 9 13 11 11 10 7 3 3 4 5 5 4 4 5 6 8 10 11 12 13 14 16 18 20 22 23 24 24 25 25 25 26 26 26 27 27
7 5 3 2 7 7 5 5 7 5 12 13 11 8 4 1 2 2 4 6 7 9 11 12 13 15 16 16 17 18 19 20 22 24 26 27 28 29 30 31 31 31 31 31
11 7 4 3 2 1 3 1 2 4 1 7 8 6 4 7 10 7 8 11 13 16 17 17 18 18 19 19 21 22 22 23 23 24 26 27 29 30 30 31 32 34 35 35
6 7 9 5 3 2 5 2 1 1 7 14 14 15 14 15 18 21 23 25 26 26 26 26 26 25 25 26 26 26 27 27 26 26 26 27 29 30 30 31 31 32 32 33
8 4 4 3 0 1 5 4 3 4 9 17 19 23 25 26 27 28 29 29 31 32 33 32 32 32 32 32 31 31 30 30 29 28 28 28 29 29 30 30 30 30 31 31
4 5 4 3 3 5 9 11 11 11 18 26 30 33 41 42 40 35 35 39 39 38 38 39 39 40 39 38 37 35 34 32 31 29 28 28 29 30 30 30 30 30 29 29
5 8 7 8 7 11 16 18 22 26 33 38 38 41 48 51 45 42 39 38 40 43 45 46 46 45 43 42 40 37 35 34 31 30 29 28 28 29 29 30 30 29 29 29
5 8 13 12 15 20 22 16 31 38 43 46 46 51 53 52 49 44 41 39 38 39 41 42 42 42 42 42 40 37 35 34 31 29 28 28 27 28 28 29 29 29 29 29
6 11 17 20 25 31 36 42 47 54 57 59 59 59 49 46 47 44 43 39 38 38 38 39 39 39 38 39 37 35 34 33 30 28 28 27 27 27 27 27 27 28 28 29
Wind_Direction
230 225 220 239 241 251 249 245 250 248 241 246 238 234 237 238 237 238 236 235 234 233 233 232 231 232 231 228 227 227 227 228 230 231 235 240 243 246 250 259 253 255 266 262
236 239 252 246 241 246 249 249 247 248 248 240 244 244 243 238 238 234 228 228 232 234 234 231 230 231 231 230 229 230 229 230 234 234 238 239 243 248 250 254 256 257 260 262
235 253 246 250 243 242 243 240 242 238 247 243 249 250 242 235 234 233 228 225 225 224 229 231 225 224 225 225 227 230 229 230 239 238 238 238 240 245 250 252 252 254 257 258
257 250 252 249 244 241 246 246 248 240 231 241 232 253 237 238 234 230 226 223 223 222 221 221 222 222 221 221 226 230 231 230 236 236 240 241 244 246 250 252 254 251 253 254
244 244 240 245 242 239 247 248 253 247 225 232 227 227 233 236 231 230 224 221 221 223 223 224 223 224 225 225 225 227 231 234 238 241 245 246 247 249 248 250 252 252 251 252
244 255 254 249 249 244 238 235 240 229 221 226 225 214 231 230 234 229 227 223 221 222 224 226 228 230 231 231 233 234 237 238 240 242 244 246 247 247 246 246 247 248 248 249
268 258 258 258 248 240 216 206 215 211 203 231 218 210 223 237 229 227 223 223 224 222 222 225 227 229 232 235 235 235 234 236 237 240 241 243 245 245 244 244 244 246 246 246
330 216 264 265 229 218 218 221 237 241 218 207 178 218 224 233 241 225 216 217 220 224 225 225 227 228 230 232 233 230 227 228 229 231 235 238 240 242 242 242 241 240 241 241
344 242 295 287 265 221 214 227 242 301 274 239 169 227 228 223 217 213 211 213 215 216 219 222 224 225 226 226 228 229 228 228 229 231 233 235 237 237 237 238 239 239 238 238
349 307 359 320 294 254 235 256 245 230 249 238 148 255 201 206 205 203 203 209 212 214 213 215 217 220 221 221 224 228 230 232 232 232 233 234 235 236 236 235 237 239 239 239
7 20 339 5 29 21 300 241 250 284 298 299 220 138 222 200 196 199 201 206 211 214 215 215 216 218 221 224 226 231 234 234 235 235 235 234 234 235 235 234 234 236 237 237
9 8 352 336 2 21 44 27 27 301 50 1 311 53 219 188 187 197 200 200 204 210 216 221 225 227 228 229 233 232 230 233 233 234 235 236 235 235 236 235 234 234 236 238
358 347 331 107 75 38 37 14 5 341 330 1 322 45 153 178 185 189 199 203 204 207 209 212 214 216 218 219 220 221 223 228 231 232 232 233 234 234 234 235 237 236 235 235
34 51 66 34 346 348 24 19 22 7 315 7 24 40 173 199 198 199 199 205 208 206 205 207 208 209 210 212 214 216 218 223 228 232 232 231 231 232 234 234 235 236 237 237
75 82 91 75 70 75 54 35 25 40 35 356 337 310 303 231 217 212 215 220 220 217 214 212 211 211 213 215 218 220 221 222 223 227 230 233 232 232 232 234 236 237 238 238
41 88 105 96 91 82 57 53 45 37 25 13 7 5 309 228 219 216 218 218 218 217 216 214 215 217 223 233 241 245 246 245 242 239 238 238 238 237 235 236 237 239 241 242
31 36 57 108 138 135 29 36 40 46 44 25 11 341 340 227 219 216 226 221 218 222 229 240 249 257 261 263 262 261 262 262 259 257 253 249 247 247 247 245 244 244 245 246
24 22 54 82 128 111 80 56 58 51 50 37 20 12 95 133 188 225 232 238 262 276 272 264 260 260 261 263 265 267 268 268 268 266 262 259 256 253 251 250 250 250 250 249
26 43 51 71 66 122 32 29 45 61 36 38 40 47 43 276 221 42 343 313 289 277 271 268 268 269 272 274 276 275 273 270 268 267 265 262 260 258 256 253 251 251 251 251
48 51 71 66 96 113 345 290 345 337 180 9 7 7 304 280 272 280 263 269 275 278 277 276 275 276 278 280 280 279 278 275 273 268 264 262 258 257 257 256 255 254 252 251
38 42 53 53 96 147 15 329 298 247 319 319 317 314 303 287 280 277 274 269 264 266 269 272 274 276 278 280 280 280 279 277 275 272 268 263 259 255 253 254 255 255 255 254
26 20 12 12 108 196 319 307 223 289 321 322 320 320 312 302 291 284 279 273 270 267 267 269 271 275 277 279 279 279 279 277 275 273 268 264 260 258 255 254 255 255 256 256
19 13 344 338 244 266 323 290 268 273 302 308 306 309 312 306 302 293 279 268 266 265 265 267 270 272 274 276 277 276 275 275 274 272 269 264 259 256 255 254 255 255 255 255
354 349 326 324 286 266 285 302 267 276 290 296 297 300 309 304 296 290 281 273 267 263 262 263 264 266 269 271 273 273 272 272 272 271 269 265 259 255 253 253 254 255 256 255
356 322 309 309 282 278 290 277 288 283 294 295 292 297 299 297 290 286 279 274 269 265 263 262 263 263 264 266 267 269 268 268 268 267 266 263 258 254 253 252 253 254 256 256
320 315 326 311 309 305 300 299 298 299 298 298 296 296 294 287 282 278 275 272 269 266 263 262 262 261 260 261 263 263 263 264 264 263 261 257 254 253 253 253 254 254 254 257